"Pseudo-MPEC" for P115HAo

Created 2020 Sep 16 17:07:20 UT using Find_Orb

Click here for an explanation of pseudo-MPECs

 
 Astrometry: 
     P115HAo  C2020 09 12e;M2N-_NTfu6?1X]VX*OAstrometry5Pkoe0[(uQUkc]yH2-4aC-F51
     P115HAo  C2020 09 12B.f%DcncRx.redacted;Gcr)kGZ!9w^8Jyhfvv.*g#:PqW)oe*27F51
     P115HAo  C2020 09 123Wclick_GXxy=jyAihereA-eq;I3\LN3C+plKTXbB6GinyBeiu-XF51
     P115HAo ^C2020 09 14.37742423 39 50.939-17 46 37.79   ~9EAM 21.75GVNEOCP568
     P115HAo ^C2020 09 14.37837323 39 50.977-17 46 39.17   ~9EAM 21.85GVNEOCP568
     P115HAo ^C2020 09 14.37931923 39 51.013-17 46 40.57   ~9EAM 22.11GVNEOCP568
     P115HAo  C2020 09 14=nC40mFsP3=5]c:8B#ZX$#$FlGAy8m#'Wp)XDYk;HO$cg@!2D$9JF51
     P115HAo  C2020 09 14+JF^*^+-e=Xnu'@=Poum6v3for7.1!4@,8fDBKPexplanation)jF51
     P115HAo  C2020 09 16.28500 23 41 24.06 -18 33 52.3    ~9G7b 22.1 GVNEOCPV06
     P115HAo  C2020 09 16.28975 23 41 24.28 -18 33 59.2    ~9G7b 21.8 GVNEOCPV06
     P115HAo  C2020 09 16.29450 23 41 24.47 -18 34 06.4    ~9G7b 22.1 GVNEOCPV06
     P115HAo  C2020 09 16.29925 23 41 24.67 -18 34 13.5    ~9G7b 21.8 GVNEOCPV06

Station data:
(568) Mauna Kea  (N19.826116 W155.472200)  US/Hawaii.
(F51) Pan-STARRS 1, Haleakala  (N20.707235 W156.255910)  US/Hawaii.
   Observers N. Primak, A. Schultz, S. Watters, J. Thiel, T. Goggia. Measurer
   PS1 Science Consortium. 1.8-m Ritchey-Chrétien + CCD.
(V06) Catalina Sky Survey-Kuiper  (N32.416847 W110.732550)  US/Arizona.
   Observers T. A. Pruyne, B. M. Africano, E. J. Christensen, G. A. Farneth,
   D. C. Fuls, A. R. Gibbs, A. D. Grauer, H. Gröller, J. A. Johnson, R. A.
   Kowalski, S. M. Larson, G. J. Leonard, D. Rankin, R. L. Seaman, F. C.
   Shelly. 1.55-m reflector + CCD.

Orbital elements:  P115HAo
   Perihelion 2020 Oct 31.911823 +/- 0.1 TT = 21:53:01 (JD 2459154.411823)
Epoch 2020 Sep 16.0 TT = JDT 2459108.5   Earth MOID: 0.3036   Ma: 0.0361
M 349.36736277 +/- 0.35             (J2000 ecliptic)          AutoNEOCP
n   0.23158821 +/- 0.00785          Peri.  244.93027 +/- 0.28
a   2.62618356 +/- 0.0593           Node   144.77943 +/- 0.15
e   0.5195390 +/- 0.00896           Incl.    8.62157 +/- 0.15
P   4.26                   H 23.1   G  0.15   U  9.5  
q 1.26177864 +/- 0.00497    Q 3.99058847 +/- 0.111
From 12 observations 2020 Sept. 12-16; mean residual 0".11
Residuals in arcseconds: 
200912 F51  .08+  .02-    200914 568  .03+  .09+    200916 V06  .29-  .02-    
200912 F51  .13-  .07+    200914 568  .01+  .11+    200916 V06  .09+  .13+    
200912 F51  .02+  .07-    200914 F51  .10+  .05+    200916 V06  .04+  .02-    
200914 568  .01+  .05+    200914 F51  .09-  .25-    200916 V06  .14+  .08-    

Ephemerides (geocentric):
Date (UTC) HH   RA              Dec         delta   r     elong  mag " sig PA
---- -- -- --  -------------   -----------  ------ ------ -----  --- ---- ---
2020 09 16 17  23 41 45.015   -18 43 59.32  .36025 1.3547 163.6 22.3 .389   1
2020 09 16 18  23 41 47.104   -18 45 00.84  .36014 1.3545 163.6 22.3 .395   2
2020 09 16 19  23 41 49.194   -18 46 02.36  .36003 1.3544 163.6 22.3 .402   2
2020 09 16 20  23 41 51.285   -18 47 03.86  .35992 1.3542 163.5 22.3 .408   2
2020 09 16 21  23 41 53.379   -18 48 05.35  .35981 1.3540 163.5 22.3 .415   3
2020 09 16 22  23 41 55.473   -18 49 06.83  .35970 1.3539 163.5 22.3 .422   3
2020 09 16 23  23 41 57.569   -18 50 08.29  .35959 1.3537 163.4 22.3 .429   3
2020 09 17 00  23 41 59.667   -18 51 09.74  .35948 1.3535 163.4 22.3 .436   4
2020 09 17 01  23 42 01.766   -18 52 11.18  .35937 1.3534 163.4 22.3 .443   4
2020 09 17 02  23 42 03.867   -18 53 12.60  .35926 1.3532 163.3 22.3 .451   4
2020 09 17 03  23 42 05.969   -18 54 14.01  .35915 1.3531 163.3 22.3 .458   5
2020 09 17 04  23 42 08.073   -18 55 15.40  .35904 1.3529 163.3 22.3 .466   5
2020 09 17 05  23 42 10.179   -18 56 16.78  .35894 1.3527 163.2 22.3 .474   6
2020 09 17 06  23 42 12.286   -18 57 18.15  .35883 1.3526 163.2 22.3 .482   6
2020 09 17 07  23 42 14.394   -18 58 19.50  .35872 1.3524 163.2 22.3 .491   6
2020 09 17 08  23 42 16.505   -18 59 20.84  .35861 1.3523 163.1 22.3 .499   7
2020 09 17 09  23 42 18.616   -19 00 22.16  .35851 1.3521 163.1 22.3 .508   7
2020 09 17 10  23 42 20.730   -19 01 23.47  .35840 1.3519 163.1 22.3 .517   7
2020 09 17 11  23 42 22.845   -19 02 24.76  .35829 1.3518 163.0 22.3 .526   8
2020 09 17 12  23 42 24.961   -19 03 26.03  .35819 1.3516 163.0 22.3 .536   8
2020 09 17 13  23 42 27.079   -19 04 27.29  .35808 1.3515 163.0 22.3 .545   8
2020 09 17 14  23 42 29.199   -19 05 28.53  .35797 1.3513 163.0 22.3 .555   9
2020 09 17 15  23 42 31.321   -19 06 29.76  .35787 1.3512 162.9 22.3 .565   9
2020 09 17 16  23 42 33.444   -19 07 30.97  .35776 1.3510 162.9 22.3 .575   9
2020 09 17 17  23 42 35.568   -19 08 32.16  .35766 1.3508 162.9 22.3 .585  10
2020 09 17 18  23 42 37.695   -19 09 33.34  .35755 1.3507 162.8 22.3 .596  10
2020 09 17 19  23 42 39.823   -19 10 34.50  .35745 1.3505 162.8 22.3 .606  10
2020 09 17 20  23 42 41.952   -19 11 35.64  .35734 1.3504 162.8 22.3 .617  11
2020 09 17 21  23 42 44.084   -19 12 36.77  .35724 1.3502 162.7 22.3 .628  11
2020 09 17 22  23 42 46.217   -19 13 37.87  .35713 1.3500 162.7 22.3 .640  11
2020 09 17 23  23 42 48.351   -19 14 38.96  .35703 1.3499 162.7 22.3 .651  11
2020 09 18 00  23 42 50.488   -19 15 40.03  .35693 1.3497 162.6 22.3 .663  12
2020 09 18 01  23 42 52.626   -19 16 41.09  .35682 1.3496 162.6 22.3 .675  12
2020 09 18 02  23 42 54.765   -19 17 42.12  .35672 1.3494 162.6 22.3 .687  12
2020 09 18 03  23 42 56.907   -19 18 43.14  .35662 1.3493 162.5 22.3 .699  13
2020 09 18 04  23 42 59.050   -19 19 44.13  .35651 1.3491 162.5 22.3 .712  13
2020 09 18 05  23 43 01.195   -19 20 45.11  .35641 1.3489 162.5 22.3 .725  13
2020 09 18 06  23 43 03.341   -19 21 46.07  .35631 1.3488 162.4 22.3 .738  14
2020 09 18 07  23 43 05.489   -19 22 47.01  .35621 1.3486 162.4 22.3 .751  14
2020 09 18 08  23 43 07.639   -19 23 47.93  .35611 1.3485 162.4 22.3 .764  14
2020 09 18 09  23 43 09.791   -19 24 48.83  .35601 1.3483 162.3 22.3 .778  14
2020 09 18 10  23 43 11.945   -19 25 49.71  .35591 1.3482 162.3 22.3 .792  15
2020 09 18 11  23 43 14.100   -19 26 50.57  .35580 1.3480 162.3 22.3 .806  15
2020 09 18 12  23 43 16.257   -19 27 51.41  .35570 1.3478 162.2 22.3 .821  15
2020 09 18 13  23 43 18.416   -19 28 52.23  .35560 1.3477 162.2 22.3 .835  15
2020 09 18 14  23 43 20.576   -19 29 53.02  .35550 1.3475 162.2 22.3 .850  16
2020 09 18 15  23 43 22.738   -19 30 53.80  .35540 1.3474 162.1 22.3 .865  16
2020 09 18 16  23 43 24.902   -19 31 54.55  .35530 1.3472 162.1 22.3 .881  16